WA4FG Weather Reports


Display with metric or nautical units.
time (UTC)temp
F
wind
direction
speed
MPH
gust
MPH
rain 1hr
in
rain 24hr
in
rain mn
in
humidity
%
barometer
mb
20260502210014 68 82 0.0 1.0 0.00 0.04 0.01 40 1014.9
20260502205513 68 82 0.0 1.0 0.00 0.04 0.01 35 1015.0
20260502204955 68 82 0.0 1.0 0.00 0.04 0.01 36 1014.9
20260502204450 68 83 0.0 2.0 0.00 0.04 0.01 40 1015.1
20260502203941 68 84 0.0 2.0 0.00 0.04 0.01 35 1015.0
20260502203439 68 84 0.0 1.0 0.00 0.04 0.01 36 1015.0
20260502202911 68 91 0.0 1.0 0.00 0.04 0.01 36 1015.1
20260502202408 68 13 0.0 2.0 0.00 0.04 0.01 33 1015.1
20260502201840 68 13 0.0 1.0 0.00 0.04 0.01 33 1015.1
20260502201336 68 11 0.0 4.0 0.00 0.04 0.01 36 1015.2
20260502200823 68 11 1.0 8.0 0.00 0.04 0.01 32 1015.2
20260502200318 68 171 1.0 8.0 0.00 0.04 0.01 33 1015.0
20260502195754 69 71 0.0 5.0 0.00 0.04 0.01 30 1015.0
20260502194737 69 118 0.0 2.0 0.00 0.04 0.01 33 1015.2
20260502194237 69 116 0.0 2.0 0.00 0.04 0.01 37 1015.2
20260502193154 69 0 0.0 5.0 0.00 0.04 0.01 37 1015.1
20260502192628 69 344 1.0 5.0 0.00 0.04 0.01 37 1015.1
20260502192101 69 86 0.0 4.0 0.00 0.04 0.01 37 1015.1
20260502191600 69 95 0.0 4.0 0.00 0.04 0.01 39 1015.1
20260502185515 68 188 1.0 5.0 0.00 0.04 0.01 39 1015.3
20260502185012 68 158 0.0 7.0 0.00 0.04 0.01 36 1015.3
20260502183947 68 207 1.0 4.0 0.00 0.04 0.01 35 1015.5
20260502183359 68 25 0.0 4.0 0.00 0.04 0.01 33 1015.5
20260502181827 68 11 0.0 5.0 0.00 0.04 0.01 36 1015.8
20260502180249 68 346 0.0 6.0 0.00 0.04 0.01 37 1015.8
20260502170113 65 78 1.0 5.0 0.00 0.04 0.01 43 1016.2
20260502164036 64 138 1.0 6.0 0.00 0.04 0.01 49 1016.2
20260502163536 63 320 1.0 5.0 0.00 0.04 0.01 46 1016.3
20260502163021 62 151 1.0 5.0 0.00 0.04 0.01 51 1016.3
20260502162506 62 116 0.0 2.0 0.00 0.04 0.01 54 1016.4
20260502162008 62 112 0.0 5.0 0.00 0.04 0.01 55 1016.4
20260502161505 62 113 1.0 5.0 0.00 0.04 0.01 53 1016.4
20260502161003 61 169 1.0 4.0 0.00 0.04 0.01 56 1016.4
20260502152211 60 157 0.0 4.0 0.00 0.04 0.01 63 1016.1
20260502151713 59 171 0.0 5.0 0.00 0.04 0.01 61 1015.9
20260502151146 59 159 0.0 5.0 0.00 0.04 0.01 69 1015.9
20260502150627 58 161 0.0 0.0 0.00 0.04 0.01 66 1015.9
20260502150128 58 161 0.0 0.0 0.00 0.04 0.01 66 1015.8
20260502123430 52 162 0.0 0.0 0.00 0.04 0.01 93 1014.4
20260502122926 51 162 0.0 0.0 0.00 0.04 0.01 93 1014.3
20260502121859 51 162 0.0 0.0 0.00 0.04 0.01 94 1014.3
20260502121331 51 162 0.0 0.0 0.00 0.04 0.01 94 1014.2
20260502120829 51 162 0.0 0.0 0.00 0.04 0.01 95 1014.1
20260502120326 51 162 0.0 0.0 0.00 0.04 0.01 95 1014.0
20260502115322 51 162 0.0 0.0 0.00 0.04 0.01 95 1013.8
20260502114756 51 162 0.0 0.0 0.00 0.04 0.01 95 1013.7
20260502114254 51 162 0.0 0.0 0.00 0.04 0.01 95 1013.6
20260502113730 51 162 0.0 0.0 0.00 0.04 0.01 96 1013.7
20260502113228 51 162 0.0 0.0 0.00 0.04 0.01 96 1013.6
20260502112730 51 162 0.0 0.0 0.00 0.04 0.01 96 1013.7
20260502112210 51 162 0.0 0.0 0.00 0.04 0.01 96 1013.6
20260502111628 51 162 0.0 0.0 0.00 0.04 0.01 95 1013.7
20260502111130 51 162 0.0 0.0 0.00 0.04 0.01 95 1013.9
20260502110602 51 162 0.0 0.0 0.00 0.04 0.01 95 1013.7
20260502110101 52 162 0.0 0.0 0.00 0.04 0.01 96 1013.6
20260502105605 52 162 0.0 0.0 0.00 0.04 0.01 96 1013.8
20260502105057 52 162 0.0 0.0 0.00 0.04 0.01 96 1013.4
20260502104601 52 162 0.0 0.0 0.00 0.04 0.01 96 1013.5
20260502104032 52 162 0.0 0.0 0.00 0.04 0.01 96 1013.5
20260502103506 52 162 0.0 0.0 0.00 0.04 0.01 96 1012.7
20260502102937 52 162 0.0 0.0 0.00 0.04 0.01 96 1013.6
20260502102436 52 162 0.0 0.0 0.00 0.04 0.01 96 1013.6
20260502101931 52 162 0.0 0.0 0.00 0.04 0.01 96 1013.3
20260502100854 52 162 0.0 0.0 0.00 0.04 0.01 96 1013.7
20260502100352 52 162 0.0 0.0 0.00 0.04 0.01 96 1013.8
20260502091208 53 162 0.0 0.0 0.01 0.04 0.01 96 1013.2
20260502090139 53 162 0.0 0.0 0.01 0.04 0.01 96 1013.7
20260502071240 56 162 0.0 0.0 0.00 0.03 0.00 98 1013.6
20260502070717 56 162 0.0 0.0 0.00 0.03 0.00 98 1013.4
20260502070215 56 162 0.0 0.0 0.00 0.03 0.00 98 1013.6
20260502065653 56 162 0.0 0.0 0.00 0.03 0.00 98 1013.9
20260502065135 56 162 0.0 0.0 0.00 0.03 0.00 98 1013.9
20260502064630 57 162 0.0 0.0 0.00 0.03 0.00 98 1013.9
20260502064118 57 162 0.0 0.0 0.00 0.03 0.00 98 1014.1
20260502063551 57 162 0.0 0.0 0.00 0.03 0.00 98 1014.1
20260502063049 57 162 0.0 0.0 0.00 0.03 0.00 98 1014.1
20260502062547 57 162 0.0 0.0 0.00 0.03 0.00 98 1014.0
20260502062029 57 162 0.0 0.0 0.00 0.03 0.00 98 1013.8
20260502061018 57 162 0.0 0.0 0.00 0.03 0.00 98 1014.0
20260502060503 57 162 0.0 0.0 0.00 0.03 0.00 98 1014.0
20260502055949 57 162 0.0 0.0 0.00 0.03 0.00 98 1013.9
20260502055422 57 162 0.0 0.0 0.00 0.03 0.00 98 1013.8
20260502054922 57 162 0.0 0.0 0.00 0.03 0.00 98 1013.8
20260502054421 57 162 0.0 0.0 0.00 0.03 0.00 98 1013.8
20260502053920 57 162 0.0 0.0 0.00 0.03 0.00 98 1013.5
20260502053413 57 162 0.0 0.0 0.00 0.03 0.00 98 1013.6
20260502052910 57 162 0.0 0.0 0.00 0.03 0.00 98 1013.7
20260502052414 57 162 0.0 0.0 0.00 0.03 0.00 98 1013.9
20260502051844 57 162 0.0 0.0 0.00 0.03 0.00 98 1013.7
20260502051320 57 162 0.0 0.0 0.00 0.03 0.00 98 1013.7
20260502050240 57 162 0.0 0.0 0.00 0.03 0.00 98 1013.8
20260502045738 57 162 0.0 0.0 0.00 0.03 0.03 98 1013.7
20260502045226 57 162 0.0 0.0 0.00 0.03 0.03 98 1014.0
20260502044701 57 162 0.0 0.0 0.00 0.03 0.03 98 1013.8
20260502044144 57 162 0.0 0.0 0.00 0.03 0.03 98 1013.9
20260502043645 57 162 0.0 0.0 0.00 0.03 0.03 98 1013.8
20260502043136 57 162 0.0 0.0 0.00 0.03 0.03 98 1013.6
20260502042634 57 162 0.0 0.0 0.00 0.03 0.03 97 1013.6
20260502042136 57 162 0.0 0.0 0.00 0.03 0.03 98 1013.5
20260502041620 57 162 0.0 0.0 0.00 0.03 0.03 97 1013.6
20260502041117 57 162 0.0 0.0 0.00 0.03 0.03 97 1013.5
20260502040100 57 162 0.0 0.0 0.00 0.03 0.03 97 1013.4
20260502035015 57 162 0.0 0.0 0.00 0.03 0.03 97 1013.3
20260502034010 57 162 0.0 0.0 0.00 0.03 0.03 97 1013.4
20260502033509 57 162 0.0 0.0 0.00 0.03 0.03 97 1013.5
20260502033019 57 162 0.0 0.0 0.00 0.03 0.03 97 1013.6
20260502032433 57 162 0.0 0.0 0.00 0.03 0.03 97 1013.7
20260502031908 57 162 0.0 0.0 0.00 0.03 0.03 97 1013.8
20260502031406 57 162 0.0 0.0 0.00 0.03 0.03 96 1013.9
20260502030839 58 162 0.0 0.0 0.00 0.03 0.03 96 1013.9
20260502025820 58 162 0.0 0.0 0.01 0.03 0.03 96 1014.0
20260502024753 58 162 0.0 0.0 0.01 0.03 0.03 96 1014.0
20260502024244 58 162 0.0 0.0 0.01 0.03 0.03 96 1014.0
20260502023151 58 162 0.0 0.0 0.01 0.03 0.03 96 1014.0
20260502022641 58 162 0.0 0.0 0.02 0.03 0.03 95 1014.0
20260502022114 58 162 0.0 0.0 0.02 0.03 0.03 95 1014.3
20260502021611 58 162 0.0 0.0 0.03 0.03 0.03 95 1014.5
20260502020052 58 162 0.0 0.0 0.02 0.02 0.02 94 1014.4
20260502015528 58 162 0.0 0.0 0.02 0.02 0.02 94 1014.4
20260502015025 58 162 0.0 0.0 0.02 0.02 0.02 93 1014.4
20260502013441 59 162 0.0 0.0 0.02 0.02 0.02 93 1014.3
20260502012943 59 162 0.0 0.0 0.02 0.02 0.02 93 1014.4
20260502012433 59 162 0.0 0.0 0.01 0.01 0.01 92 1014.3
20260502011404 59 162 0.0 0.0 0.00 0.00 0.00 91 1014.2
20260502010844 59 162 0.0 0.0 0.00 0.00 0.00 90 1014.1
20260502010342 59 162 0.0 0.0 0.00 0.00 0.00 90 1013.9
20260502005306 59 162 0.0 0.0 0.00 0.00 0.00 88 1013.6
20260502004803 59 162 0.0 0.0 0.00 0.00 0.00 88 1013.5
20260502003709 60 162 0.0 0.0 0.00 0.00 0.00 87 1013.3
20260502003207 60 162 0.0 0.0 0.00 0.00 0.00 86 1013.4
20260502002639 60 162 0.0 0.0 0.00 0.00 0.00 86 1013.5
20260502001610 60 162 0.0 0.0 0.00 0.00 0.00 85 1013.4
20260502001057 60 162 0.0 0.0 0.00 0.00 0.00 84 1013.3
20260502000526 60 162 0.0 0.0 0.00 0.00 0.00 82 1013.3
20260502000024 60 162 0.0 0.0 0.00 0.00 0.00 81 1013.2
20260501234922 60 162 0.0 0.0 0.00 0.00 0.00 80 1013.1
20260501234420 60 162 0.0 0.0 0.00 0.00 0.00 79 1013.1
20260501233916 60 162 0.0 0.0 0.00 0.00 0.00 78 1013.0
20260501233413 61 162 0.0 0.0 0.00 0.00 0.00 77 1013.0
20260501232409 62 162 0.0 0.0 0.00 0.00 0.00 81 1013.0
20260501231858 62 162 0.0 0.0 0.00 0.00 0.00 80 1012.9
20260501231330 62 162 0.0 0.0 0.00 0.00 0.00 79 1012.9
20260501230828 62 162 0.0 0.0 0.00 0.00 0.00 77 1013.0
20260501230312 62 162 0.0 0.0 0.00 0.00 0.00 76 1012.9
20260501225809 62 162 0.0 0.0 0.00 0.00 0.00 74 1012.9
20260501224700 62 162 0.0 0.0 0.00 0.00 0.00 76 1012.8
20260501224157 62 162 0.0 0.0 0.00 0.00 0.00 77 1012.8
20260501223629 62 162 0.0 0.0 0.00 0.00 0.00 76 1012.8
20260501223127 63 162 0.0 0.0 0.00 0.00 0.00 76 1012.8
20260501222601 63 162 0.0 0.0 0.00 0.00 0.00 76 1012.9
20260501222054 63 162 0.0 0.0 0.00 0.00 0.00 75 1013.0
20260501221551 63 162 0.0 0.0 0.00 0.00 0.00 73 1013.1
20260501221039 63 162 0.0 0.0 0.00 0.00 0.00 74 1013.0
20260501220541 63 162 0.0 0.0 0.00 0.00 0.00 74 1012.9
20260501220038 64 162 0.0 0.0 0.00 0.00 0.00 71 1012.9
20260501215533 64 162 0.0 0.0 0.00 0.00 0.00 72 1012.8
20260501215028 64 162 0.0 0.0 0.00 0.00 0.00 70 1012.8
20260501214447 64 162 0.0 0.0 0.00 0.00 0.00 70 1012.6
20260501213919 64 162 0.0 0.0 0.00 0.00 0.00 67 1012.4
20260501213410 64 162 0.0 0.0 0.00 0.00 0.00 64 1012.4
20260501212842 65 162 0.0 0.0 0.00 0.00 0.00 65 1012.4
20260501212322 65 162 0.0 0.0 0.00 0.00 0.00 68 1012.3
20260501211814 65 162 0.0 0.0 0.00 0.00 0.00 64 1012.4
20260501210749 65 162 0.0 0.0 0.00 0.00 0.00 68 1012.1
20260501210249 65 162 0.0 0.0 0.00 0.00 0.00 66 1012.3